DIRECTV 12

Last updated on Thu Sep 10 2026 00:02:56 GMT+0000 (Coordinated Universal Time)

1 36131U 09075A 26252.43424075 -.00000125 00000+0 00000+0 0 9998 2 36131 0.0442 346.2805 0000163 161.8163 253.9901 1.00271399 47394
UTC large
Height (km)
Speed (km/s)
/
Latitude / Longitude
Inclination (degrees)
Orbital Period (minutes)
Azimuth
Elevation
Range (km)
Doppler Factor

Next 0 passes for location: London (51.5072 / 0.1276)

No passes found over London.
DIRECTV 12